GFSNGP_850_temp_201.txt.gz
Temp
8 8 9 8 8 8 7 8 7 8 9 10 10 10 10 9 8 8 7 7 7 7 8 8 8 8 7 7 7 7 7 6 6 6 6 4 5 5 5 4 3 1 -0 0
6 7 8 7 8 7 7 8 8 8 8 10 10 9 8 8 8 7 6 7 7 7 7 8 7 7 6 6 6 6 6 6 6 4 4 4 4 4 4 4 3 0 -0 -0
5 7 6 5 7 7 8 8 8 7 9 9 8 9 8 8 8 7 7 7 7 7 7 7 7 6 6 6 6 6 5 5 5 4 3 4 4 4 3 3 2 0 1 0
5 6 4 8 7 8 7 8 8 7 7 8 7 7 6 6 6 6 7 8 7 7 7 6 6 6 6 6 6 6 6 5 4 3 3 3 3 3 2 2 2 0 -0 -0
4 5 7 7 7 6 6 7 3 4 4 5 5 5 6 6 6 6 7 7 7 6 6 6 6 6 6 6 6 6 5 3 2 2 2 2 2 2 2 1 1 -0 -1 -1
4 4 5 7 4 4 4 5 3 3 3 3 2 4 5 4 4 5 6 7 7 6 6 5 5 5 5 5 5 5 4 2 2 2 2 2 2 2 2 1 0 -1 -2 -2
4 4 5 4 4 3 4 5 4 3 3 1 2 2 2 2 4 4 6 6 6 6 5 5 5 5 4 4 4 3 4 2 2 2 2 2 2 2 1 0 -1 -1 -2 -2
4 3 3 3 4 4 5 4 4 3 2 1 0 0 1 2 3 5 6 7 6 6 5 5 4 4 4 4 4 3 3 2 2 2 1 2 1 1 0 -1 -1 -1 -2 -2
2 4 2 2 3 3 3 3 2 2 2 2 1 1 0 3 5 6 6 6 6 5 5 5 4 4 3 2 3 3 3 2 2 2 2 1 1 1 -0 -1 -1 -1 -2 -3
1 4 3 3 3 3 3 2 2 3 3 3 2 2 2 3 3 5 6 6 6 5 5 4 3 3 2 0 1 2 2 1 1 1 1 1 0 -0 -1 -1 -1 -2 -2 -3
3 3 3 3 3 3 3 2 2 2 2 2 2 2 2 3 4 5 6 6 6 5 5 4 3 3 2 1 1 1 1 1 1 0 1 0 -0 -1 -0 -1 -1 -1 -1 -2
1 3 2 2 2 2 2 2 2 2 2 2 2 2 2 3 4 5 5 6 6 5 5 4 3 2 2 2 2 2 1 1 1 1 1 0 -0 -1 -1 -2 -2 -2 -2 -3
2 2 1 1 1 1 1 2 2 2 1 1 2 2 3 3 5 5 5 5 5 5 5 4 4 3 2 2 1 1 1 0 0 -0 -0 -0 -0 -1 -1 -1 -2 -3 -3 -3
1 1 1 1 1 1 1 1 1 2 2 1 1 3 3 4 5 5 4 4 4 4 4 4 3 2 1 1 1 1 1 0 -0 -1 -1 -1 -1 -1 -1 -1 -1 -2 -3 -3
1 1 1 1 1 1 0 0 0 -0 -0 0 0 1 3 3 4 3 3 3 3 3 3 3 2 2 0 -0 -0 -0 -0 -0 -1 -1 -1 -2 -2 -2 -2 -2 -2 -2 -3 -4
-1 -1 -1 -2 -1 -1 -1 -1 -1 -2 -2 -1 -1 -1 0 1 1 2 2 2 2 2 2 1 -1 -0 0 -0 -1 -1 -1 -2 -2 -2 -2 -3 -3 -3 -3 -3 -3 -3 -3 -3
-3 -3 -3 -3 -3 -3 -3 -4 -4 -4 -3 -3 -2 -2 -1 -1 -0 0 1 0 -0 0 -0 -2 -2 -2 -2 -2 -2 -2 -2 -3 -3 -3 -3 -3 -4 -4 -4 -4 -3 -3 -4 -4
-4 -4 -4 -4 -5 -5 -4 -4 -4 -4 -4 -4 -3 -3 -2 -1 -0 -0 -1 -1 -2 -3 -3 -3 -3 -3 -3 -3 -4 -4 -4 -4 -4 -4 -4 -4 -4 -4 -4 -4 -4 -4 -4 -4
-3 -4 -4 -4 -5 -5 -5 -5 -5 -4 -4 -4 -4 -3 -3 -2 -2 -2 -3 -3 -4 -4 -4 -4 -4 -4 -4 -5 -5 -5 -5 -5 -4 -4 -4 -5 -5 -5 -5 -5 -5 -5 -5 -5
-3 -3 -3 -4 -4 -5 -5 -6 -5 -5 -4 -4 -3 -3 -3 -3 -4 -4 -4 -4 -4 -4 -5 -5 -5 -5 -6 -6 -5 -5 -5 -5 -5 -5 -5 -5 -5 -5 -5 -5 -5 -5 -5 -6
-4 -4 -3 -4 -4 -4 -5 -5 -5 -5 -4 -4 -3 -4 -4 -5 -5 -5 -5 -5 -6 -6 -5 -6 -5 -5 -6 -6 -6 -6 -6 -6 -6 -6 -6 -6 -6 -6 -6 -6 -6 -6 -6 -6
-5 -5 -5 -5 -5 -5 -4 -5 -5 -5 -4 -4 -4 -4 -5 -5 -5 -6 -6 -5 -6 -6 -6 -6 -6 -6 -6 -6 -6 -7 -7 -7 -7 -6 -6 -6 -6 -7 -7 -7 -7 -7 -7 -7
-6 -6 -6 -6 -6 -5 -5 -5 -5 -5 -5 -5 -5 -5 -5 -6 -6 -6 -6 -7 -7 -7 -7 -6 -7 -7 -7 -7 -7 -7 -7 -7 -7 -7 -7 -7 -8 -8 -8 -8 -8 -8 -8 -8
-6 -6 -6 -6 -6 -5 -5 -6 -6 -6 -6 -6 -6 -6 -6 -6 -7 -7 -7 -8 -8 -8 -7 -8 -8 -8 -8 -8 -8 -8 -8 -8 -8 -9 -9 -9 -9 -9 -9 -9 -9 -9 -9 -9
-6 -6 -6 -6 -6 -6 -6 -6 -6 -6 -6 -7 -7 -7 -7 -7 -7 -8 -8 -8 -9 -9 -9 -9 -10 -9 -9 -9 -9 -9 -9 -9 -9 -10 -10 -10 -10 -10 -10 -10 -10 -10 -10 -10
-7 -7 -6 -6 -6 -6 -6 -6 -6 -7 -7 -7 -7 -8 -8 -8 -8 -9 -9 -9 -10 -10 -10 -10 -10 -10 -10 -10 -10 -10 -10 -10 -11 -11 -11 -11 -11 -11 -12 -12 -12 -12 -12 -12
-7 -7 -6 -7 -6 -6 -6 -6 -7 -7 -7 -8 -8 -8 -9 -9 -9 -10 -10 -10 -10 -10 -10 -11 -11 -11 -11 -11 -11 -11 -12 -12 -12 -12 -12 -12 -13 -13 -13 -13 -13 -13 -13 -13

GFSNGP_850_temp_204.txt.gz
Temp
11 11 10 10 11 11 10 9 8 9 11 13 13 13 12 12 11 11 11 10 10 9 8 8 7 6 6 5 5 6 6 5 6 5 5 6 7 6 6 7 6 3 2 1
7 9 9 9 10 10 10 10 10 10 11 13 12 12 12 11 11 11 10 10 9 8 8 8 7 7 6 6 5 5 5 5 4 4 4 3 4 3 4 6 5 3 2 2
6 9 9 7 9 10 10 10 10 9 11 12 11 11 11 10 9 9 9 9 8 8 8 7 7 6 6 6 6 5 5 5 4 4 4 3 3 3 4 5 5 4 3 1
6 8 6 10 11 11 10 10 11 10 11 10 9 8 8 8 8 8 8 8 8 8 7 7 6 6 6 6 6 5 4 4 5 5 3 2 3 3 3 4 4 3 2 1
5 7 9 10 11 10 9 9 7 7 7 7 7 6 8 7 6 5 5 6 7 7 7 6 6 5 5 5 5 5 4 4 4 3 2 2 2 3 3 3 3 3 2 1
6 6 7 9 8 7 8 7 8 7 7 7 5 5 7 3 2 3 4 5 7 7 7 6 5 5 5 5 5 4 3 4 3 2 2 2 2 2 2 2 2 1 0 -0
6 6 8 10 7 6 5 8 6 6 6 6 6 4 2 1 2 1 2 4 6 6 6 6 5 5 5 5 4 4 4 3 3 2 2 1 1 1 1 0 -0 -0 -1 -1
6 6 6 7 6 6 7 6 6 6 6 5 5 4 4 3 1 1 0 3 6 6 6 5 4 4 4 4 3 3 3 2 2 2 2 1 1 1 0 -0 -1 -1 -1 -2
6 7 6 5 6 6 6 6 6 5 5 5 5 5 5 4 1 1 2 4 5 6 6 5 4 4 3 3 1 2 2 2 2 2 1 1 0 0 -0 -1 -1 -1 -2 -2
5 7 8 7 6 6 5 5 5 5 4 4 4 4 4 4 2 1 1 4 5 5 6 4 3 4 3 3 1 1 1 1 0 1 1 0 0 -0 -0 -0 -1 -2 -2 -2
5 6 6 5 5 5 4 4 4 4 4 4 4 4 4 4 3 3 3 4 5 5 5 4 3 3 3 3 2 1 1 0 0 -0 0 0 -0 -0 -0 -1 -1 -1 -1 -2
4 6 5 5 4 4 3 4 3 3 3 4 3 3 4 4 3 2 2 3 4 4 4 4 3 2 3 2 2 2 1 1 0 0 -0 0 -0 -0 -1 -1 -1 -1 -2 -2
4 4 3 3 3 3 3 3 3 3 3 3 3 3 3 3 3 3 3 3 3 3 4 4 4 3 3 2 2 2 2 1 0 -0 0 -0 -0 -1 -1 -1 -2 -2 -2 -3
3 3 3 3 3 3 3 3 2 2 2 2 1 0 0 1 2 3 3 2 1 3 4 3 3 3 3 2 2 1 1 1 1 -0 -1 -1 -1 -1 -1 -1 -1 -2 -2 -3
2 2 1 -0 0 1 2 2 1 2 1 -1 -1 -1 -1 -1 0 0 1 2 2 2 2 2 1 2 2 1 1 1 0 0 -0 -0 -1 -1 -2 -2 -2 -2 -2 -2 -2 -3
-1 -1 -1 -2 -2 -2 -2 -2 -2 -2 -2 -2 -3 -3 -2 -2 -1 -0 0 0 -0 1 1 1 1 1 1 -0 -1 -1 -1 -1 -2 -2 -2 -2 -3 -3 -3 -3 -3 -3 -3 -3
-2 -2 -3 -3 -3 -4 -4 -4 -4 -4 -4 -4 -4 -4 -3 -2 -2 -1 -1 -1 -1 -1 -1 -0 -1 -1 -1 -1 -2 -2 -2 -3 -3 -3 -3 -3 -3 -4 -4 -3 -3 -4 -4 -3
-3 -3 -3 -4 -4 -4 -4 -4 -5 -5 -4 -4 -4 -4 -3 -3 -3 -2 -2 -2 -2 -2 -2 -3 -3 -3 -3 -2 -2 -3 -3 -4 -4 -4 -4 -4 -4 -4 -4 -4 -4 -4 -4 -4
-3 -2 -3 -4 -4 -4 -5 -5 -5 -5 -5 -4 -4 -3 -3 -3 -3 -3 -3 -4 -3 -4 -4 -4 -4 -4 -4 -4 -4 -4 -4 -4 -4 -4 -5 -5 -5 -5 -5 -5 -5 -5 -5 -5
-4 -4 -4 -4 -4 -4 -5 -4 -5 -5 -4 -4 -4 -4 -4 -4 -4 -4 -5 -5 -5 -5 -5 -5 -5 -5 -5 -5 -5 -5 -5 -5 -5 -5 -5 -5 -5 -5 -5 -5 -5 -5 -5 -5
-5 -5 -5 -5 -5 -5 -5 -5 -5 -4 -4 -4 -4 -4 -4 -4 -5 -5 -5 -5 -5 -5 -5 -5 -6 -6 -6 -6 -5 -5 -5 -5 -5 -5 -5 -5 -6 -6 -6 -6 -6 -6 -6 -6
-6 -6 -6 -5 -5 -5 -5 -5 -5 -5 -5 -4 -4 -5 -5 -5 -5 -6 -6 -6 -6 -6 -6 -6 -6 -6 -7 -6 -6 -6 -6 -7 -6 -6 -6 -6 -6 -6 -7 -7 -7 -7 -7 -7
-5 -6 -6 -6 -6 -6 -5 -5 -5 -5 -5 -5 -5 -5 -6 -6 -7 -7 -7 -7 -7 -7 -6 -6 -7 -7 -7 -7 -7 -7 -7 -7 -7 -7 -7 -7 -7 -7 -7 -8 -8 -8 -8 -8
-7 -7 -6 -6 -6 -6 -6 -6 -6 -5 -5 -6 -6 -6 -6 -6 -6 -6 -6 -7 -7 -7 -7 -7 -7 -7 -7 -7 -7 -8 -8 -8 -8 -8 -8 -8 -8 -8 -9 -9 -9 -9 -9 -9
-6 -7 -7 -6 -6 -6 -6 -6 -6 -6 -6 -7 -7 -7 -7 -8 -7 -7 -7 -8 -8 -8 -8 -8 -9 -9 -8 -8 -8 -8 -9 -9 -9 -9 -9 -9 -10 -10 -10 -10 -10 -10 -10 -10
-9 -8 -8 -8 -7 -7 -7 -7 -7 -7 -8 -8 -8 -8 -8 -8 -8 -8 -8 -9 -9 -9 -9 -9 -10 -10 -9 -9 -9 -10 -10 -10 -10 -10 -11 -11 -11 -11 -11 -11 -11 -12 -12 -12
-9 -9 -8 -8 -8 -7 -7 -7 -7 -7 -7 -8 -9 -8 -8 -8 -9 -9 -9 -10 -10 -10 -10 -10 -10 -10 -10 -11 -11 -11 -11 -11 -12 -12 -12 -12 -13 -13 -13 -13 -13 -13 -13 -13

GFSNGP_850_temp_207.txt.gz
Temp
13 14 13 13 13 13 13 14 13 12 13 14 14 15 15 14 13 13 13 12 12 12 11 10 10 8 8 8 8 7 7 7 6 5 4 5 4 5 5 5 5 3 2 2
10 12 12 11 12 12 12 12 12 12 12 13 14 14 14 14 13 12 12 12 11 11 11 10 9 9 9 8 8 8 7 7 7 6 5 4 4 4 4 3 3 3 2 2
9 12 11 9 11 12 13 13 13 12 13 15 14 14 13 12 12 11 11 10 10 10 10 9 9 8 8 8 8 8 7 7 7 7 6 5 4 3 3 3 3 1 2 2
8 9 7 12 14 13 13 13 14 14 14 14 13 12 11 10 10 9 8 8 8 9 8 8 8 8 7 7 7 7 7 7 6 5 5 4 3 3 3 2 2 1 1 1
7 9 11 13 12 12 11 12 13 13 13 12 11 10 10 10 6 6 5 6 6 7 7 8 8 8 7 7 7 7 7 7 5 3 3 3 2 2 2 2 1 0 -0 2
6 7 8 12 11 11 11 9 13 12 10 10 9 9 10 8 6 5 5 4 4 5 6 6 8 7 6 5 5 5 5 4 3 2 2 2 2 2 1 1 1 0 -0 -0
7 7 9 12 11 10 7 10 9 9 9 9 9 9 8 7 6 6 5 3 2 2 4 4 8 6 5 5 5 5 4 3 3 2 2 2 2 1 1 0 -0 -0 -1 -1
7 6 7 11 9 8 10 8 8 8 8 8 8 7 7 7 7 7 6 4 2 1 3 5 6 6 5 5 5 4 3 3 2 2 2 2 2 1 1 0 -0 -1 -1 -2
9 9 10 9 10 9 8 8 8 8 8 8 7 7 7 7 6 6 6 3 2 2 2 6 6 6 5 4 4 3 2 2 2 2 1 1 1 1 1 -0 -1 -1 -1 -1
8 10 10 10 9 9 8 8 7 7 7 6 7 6 6 6 6 6 6 2 2 2 3 5 6 5 3 3 3 2 2 2 1 1 0 -1 0 0 0 -0 -0 -1 -1 -2
7 9 9 8 8 7 7 7 6 6 6 6 6 6 6 6 6 6 6 5 3 2 2 6 6 5 3 2 2 2 2 2 1 1 0 -0 -0 -0 -0 -0 -0 -1 -1 -1
7 8 7 7 7 7 6 6 6 5 5 5 5 5 5 5 6 5 5 5 4 3 2 5 6 5 4 2 2 2 1 2 2 1 0 0 -0 -1 -1 -1 -2 -2 -2 -2
7 7 6 6 5 5 5 5 5 5 5 5 5 5 4 3 3 3 3 4 4 3 3 4 5 5 4 2 1 1 1 2 2 1 0 -0 -0 -1 -1 -1 -1 -2 -2 -2
6 5 5 5 5 4 4 4 4 5 5 4 3 2 1 -0 -0 1 2 3 3 3 3 3 3 4 3 3 2 2 1 1 1 1 1 -0 -1 -1 -1 -1 -1 -2 -2 -2
4 4 4 2 1 0 -0 1 1 2 2 1 -0 -1 -1 -1 -1 -1 -0 -1 -0 1 1 2 2 1 2 1 1 1 0 -0 -0 0 0 -0 -1 -2 -2 -2 -2 -2 -2 -3
0 0 0 0 0 -0 -1 -1 -1 -1 -2 -2 -2 -2 -2 -3 -2 -2 -2 -1 -1 -1 -1 1 1 1 1 0 -1 -0 -0 -1 -1 -1 -1 -2 -2 -2 -2 -3 -3 -3 -2 -3
-0 -1 -1 0 -1 -2 -3 -3 -3 -3 -3 -3 -3 -4 -4 -3 -3 -3 -2 -1 -1 -1 -1 -1 -1 -1 -1 -1 -2 -1 -2 -2 -2 -2 -2 -3 -3 -3 -3 -3 -3 -3 -3 -3
-3 -3 -2 -2 -2 -2 -2 -3 -4 -4 -4 -4 -4 -4 -3 -3 -3 -3 -3 -2 -2 -2 -2 -2 -2 -3 -3 -3 -3 -3 -3 -3 -3 -3 -3 -4 -4 -5 -4 -4 -4 -4 -4 -4
-3 -3 -2 -2 -3 -3 -3 -3 -4 -4 -5 -4 -4 -4 -4 -4 -3 -3 -3 -3 -4 -4 -4 -4 -4 -4 -4 -4 -4 -4 -4 -4 -4 -4 -4 -5 -5 -5 -5 -5 -5 -5 -5 -5
-4 -4 -4 -4 -4 -5 -5 -4 -4 -5 -4 -5 -4 -5 -4 -4 -4 -4 -5 -5 -5 -5 -5 -5 -5 -5 -5 -5 -5 -5 -5 -5 -4 -4 -5 -5 -5 -5 -5 -5 -5 -5 -5 -5
-5 -5 -5 -5 -5 -5 -5 -5 -5 -5 -5 -5 -4 -5 -5 -5 -5 -5 -5 -5 -5 -5 -5 -6 -6 -6 -5 -6 -5 -6 -5 -5 -5 -6 -6 -6 -6 -6 -6 -6 -6 -6 -6 -6
-5 -5 -5 -5 -5 -5 -5 -5 -5 -5 -5 -5 -5 -5 -5 -5 -6 -6 -6 -6 -6 -6 -6 -6 -6 -6 -6 -6 -6 -6 -6 -6 -6 -7 -7 -7 -7 -7 -7 -7 -7 -7 -7 -7
-4 -5 -5 -5 -5 -5 -5 -5 -6 -6 -5 -5 -5 -5 -6 -6 -6 -6 -7 -6 -6 -6 -6 -6 -6 -6 -6 -6 -6 -7 -7 -7 -7 -7 -7 -8 -8 -8 -8 -8 -8 -8 -8 -8
-6 -6 -7 -7 -6 -5 -5 -5 -5 -6 -6 -6 -6 -6 -6 -6 -6 -6 -6 -6 -6 -7 -7 -7 -7 -7 -7 -7 -7 -8 -8 -8 -8 -8 -8 -8 -8 -8 -9 -9 -9 -9 -9 -9
-8 -7 -7 -6 -6 -5 -5 -5 -6 -6 -7 -7 -7 -7 -7 -6 -7 -7 -7 -7 -7 -8 -8 -8 -8 -8 -8 -8 -8 -8 -8 -9 -9 -9 -9 -9 -9 -9 -9 -10 -10 -10 -10 -10
-8 -7 -7 -7 -7 -6 -6 -6 -6 -5 -6 -6 -7 -8 -8 -7 -7 -8 -8 -8 -8 -9 -9 -9 -9 -9 -9 -9 -9 -10 -10 -10 -10 -10 -10 -10 -10 -10 -11 -11 -11 -11 -11 -11
-8 -8 -7 -7 -7 -7 -7 -8 -7 -6 -6 -6 -7 -9 -9 -9 -9 -9 -9 -9 -9 -10 -10 -10 -10 -11 -11 -11 -10 -10 -10 -10 -11 -11 -11 -11 -11 -11 -12 -12 -12 -12 -13 -13

GFSNGP_850_temp_210.txt.gz
Temp
13 14 14 14 15 15 14 14 13 15 15 16 16 15 14 14 14 14 14 13 13 12 11 11 11 10 9 9 9 8 8 8 7 7 7 6 6 5 5 4 4 3 2 2
9 12 12 12 13 14 14 14 14 14 13 15 16 15 14 14 15 14 13 12 12 10 10 9 9 10 9 9 9 8 8 8 8 7 7 6 6 5 4 4 4 3 3 2
8 11 12 10 12 13 14 14 14 12 13 14 14 15 15 14 13 12 10 10 9 9 8 8 8 8 7 8 8 8 8 8 8 8 7 6 6 5 4 4 3 3 3 3
7 10 8 13 15 15 13 14 14 14 14 15 15 15 13 12 11 9 8 7 6 7 7 7 7 7 7 8 8 8 7 8 8 8 7 6 5 4 3 3 3 3 3 2
7 8 11 13 14 13 13 12 14 14 14 14 14 12 12 11 9 7 7 6 6 5 5 6 6 6 6 6 7 7 6 6 6 6 5 5 3 3 3 3 3 2 2 1
6 7 9 12 12 14 14 10 14 14 13 13 12 9 10 10 9 8 7 7 7 6 4 4 5 5 5 3 6 6 6 5 5 4 4 3 2 2 2 2 2 2 2 0
6 7 9 13 13 12 9 10 10 10 10 10 9 10 9 8 8 8 8 8 7 6 4 4 3 3 3 4 5 5 5 4 3 2 3 2 2 2 2 1 1 1 -0 -0
5 6 7 12 12 9 10 9 9 9 9 9 9 9 9 8 8 8 7 7 7 6 5 3 2 2 3 3 5 5 5 3 2 2 2 2 2 1 1 0 -0 -1 -1 -1
8 8 10 11 12 10 10 9 9 9 9 8 8 8 7 7 7 7 7 7 7 5 4 4 3 2 2 2 4 4 4 1 1 2 1 1 1 1 1 0 -1 -1 -1 -2
9 9 10 10 9 9 10 9 9 8 8 8 7 7 7 7 7 7 7 7 6 5 4 4 3 3 2 4 3 4 3 2 1 1 1 0 0 0 0 0 -1 -1 -2 -2
7 9 10 10 10 9 9 8 7 7 7 7 7 7 6 6 6 6 6 5 5 4 3 4 4 2 2 4 3 2 2 2 2 1 0 -0 -0 0 -0 -0 -1 -1 -1 -2
7 9 9 9 8 8 7 7 7 6 6 6 6 6 6 6 6 5 4 3 3 4 3 4 3 4 2 3 3 2 2 1 2 1 -0 -0 -1 -0 -0 -0 -0 -1 -1 -2
8 8 8 7 7 6 6 6 6 6 6 6 6 5 4 3 3 2 2 2 1 2 3 4 3 1 2 3 3 2 2 1 2 1 1 0 -0 -0 -0 -1 -0 -0 -1 -2
7 7 6 6 6 4 3 2 3 3 4 4 3 1 1 -1 -1 -1 -0 0 0 0 1 2 2 3 3 3 3 2 1 1 1 1 1 1 -1 -1 -1 -1 -1 -1 -1 -1
5 4 4 3 3 3 2 1 1 1 1 0 -0 -1 -1 -1 -2 -2 -2 -1 -1 -1 -0 1 1 2 2 2 2 1 1 1 1 0 0 0 -0 -2 -1 -2 -2 -2 -2 -2
2 2 1 1 1 1 0 -0 -1 -1 -1 -2 -2 -2 -3 -3 -3 -3 -3 -2 -2 -2 -1 -1 0 0 0 0 -1 -1 -1 -1 -1 -1 -1 -1 -0 -1 -3 -2 -3 -3 -2 -2
1 -0 -1 -0 -0 0 -0 -1 -2 -3 -3 -3 -3 -3 -4 -4 -3 -3 -3 -3 -3 -2 -2 -2 -2 -2 -2 -2 -1 -1 -1 -2 -2 -2 -1 -2 -2 -2 -2 -3 -3 -3 -3 -3
-1 -1 -2 -2 -2 -1 -1 -2 -3 -3 -4 -4 -4 -4 -4 -4 -4 -4 -3 -3 -3 -3 -2 -3 -3 -3 -3 -3 -2 -3 -3 -3 -3 -3 -3 -3 -4 -4 -5 -4 -4 -4 -4 -4
-2 -2 -3 -2 -3 -3 -3 -2 -3 -3 -4 -4 -5 -4 -4 -4 -4 -4 -4 -4 -4 -4 -4 -4 -4 -4 -4 -4 -4 -4 -4 -3 -4 -4 -4 -5 -5 -5 -5 -4 -5 -4 -4 -4
-3 -4 -4 -4 -3 -3 -4 -4 -4 -5 -5 -5 -5 -5 -5 -5 -4 -5 -5 -5 -5 -4 -4 -4 -5 -5 -5 -5 -5 -4 -4 -4 -4 -5 -5 -5 -5 -5 -5 -6 -5 -5 -5 -5
-4 -4 -5 -4 -4 -5 -5 -4 -4 -4 -5 -5 -5 -5 -5 -5 -5 -5 -5 -5 -5 -5 -5 -5 -5 -5 -5 -5 -5 -5 -5 -5 -5 -5 -5 -6 -6 -6 -6 -6 -7 -7 -6 -6
-5 -4 -4 -4 -4 -5 -4 -5 -5 -5 -6 -6 -5 -5 -5 -6 -5 -5 -6 -5 -6 -6 -6 -6 -6 -6 -6 -6 -6 -5 -5 -5 -6 -6 -6 -6 -6 -7 -7 -7 -7 -7 -7 -7
-4 -4 -4 -5 -5 -5 -5 -5 -5 -5 -5 -6 -6 -5 -6 -6 -5 -6 -6 -6 -7 -7 -6 -6 -6 -6 -6 -6 -6 -6 -7 -7 -7 -7 -7 -7 -7 -7 -8 -8 -8 -8 -8 -8
-5 -5 -6 -6 -6 -6 -5 -5 -4 -5 -5 -6 -6 -6 -6 -6 -6 -6 -6 -6 -6 -7 -7 -7 -7 -7 -7 -7 -7 -7 -8 -8 -8 -8 -8 -8 -8 -8 -9 -9 -9 -9 -8 -8
-7 -7 -7 -6 -6 -5 -5 -5 -5 -5 -5 -6 -6 -6 -7 -6 -6 -6 -7 -7 -7 -8 -8 -8 -8 -8 -8 -8 -8 -8 -9 -10 -10 -10 -10 -10 -10 -10 -10 -10 -9 -9 -9 -9
-7 -7 -7 -7 -7 -7 -6 -6 -6 -6 -6 -6 -6 -6 -7 -7 -7 -7 -8 -8 -9 -9 -9 -9 -9 -9 -9 -9 -10 -10 -10 -10 -11 -11 -11 -11 -11 -11 -11 -11 -11 -11 -11 -11
-7 -7 -7 -7 -7 -7 -7 -8 -8 -8 -7 -7 -6 -7 -7 -8 -9 -9 -9 -10 -10 -10 -10 -10 -10 -10 -10 -11 -11 -11 -11 -11 -11 -11 -12 -12 -12 -12 -12 -12 -12 -12 -12 -12

GFSNGP_850_temp_216.txt.gz
Temp
11 12 13 13 13 13 11 11 10 12 12 13 13 13 12 14 14 14 13 12 10 9 9 9 10 10 9 9 9 8 8 8 8 8 8 8 8 7 7 7 6 5 4 4
10 11 11 11 11 11 11 11 11 11 12 14 15 15 13 13 13 12 11 10 9 9 9 9 9 8 8 8 8 7 7 7 7 7 7 8 7 7 7 7 6 6 5 5
10 10 10 8 9 10 11 11 12 10 12 14 12 12 12 13 13 11 9 9 9 9 8 8 8 8 7 7 6 6 6 6 6 6 6 7 7 7 7 7 6 6 5 4
7 7 8 11 11 11 10 11 11 12 12 13 12 12 12 12 11 9 8 8 8 8 8 8 7 7 7 7 6 6 6 6 5 5 5 6 6 6 6 6 6 5 5 4
7 7 9 10 11 11 10 11 11 11 11 11 9 9 7 9 9 8 8 8 8 8 7 7 7 7 7 7 6 5 5 4 4 4 4 4 5 5 4 4 4 4 3 3
6 7 8 10 11 12 12 9 10 11 10 9 8 6 4 8 8 8 7 7 7 7 7 7 7 6 6 5 5 5 4 4 3 3 4 4 3 3 2 2 2 2 3 2
7 7 6 9 11 12 9 10 8 9 8 8 6 6 8 7 7 7 7 7 7 7 7 7 6 6 4 4 4 4 3 2 2 2 3 2 2 2 2 2 2 2 2 2
6 7 7 9 9 9 9 8 8 8 8 8 8 8 7 7 7 7 7 7 6 6 6 6 5 4 4 4 4 3 2 1 1 1 2 2 2 2 2 1 1 1 1 1
6 6 9 9 9 10 11 9 8 8 8 8 8 7 7 7 6 6 6 6 6 6 5 4 4 4 4 4 3 2 0 1 1 1 1 1 1 1 1 1 0 -0 -0 -1
5 6 7 8 9 9 9 9 8 8 8 7 7 6 6 6 6 6 6 5 5 4 4 4 4 4 4 3 2 2 1 1 1 1 0 1 0 -0 0 -0 -0 -0 -1 -1
5 7 7 7 8 8 8 7 7 7 6 6 6 6 6 6 6 5 4 3 3 3 3 3 3 3 3 2 1 2 2 2 1 -0 -0 -0 -1 -1 -1 -0 -1 -2 -1 -1
5 6 7 6 6 6 6 6 6 6 5 5 5 5 4 4 3 3 3 2 2 2 1 1 1 1 1 1 1 0 1 2 1 1 -1 -1 -1 -1 -2 -1 -1 -2 -1 -2
6 6 6 6 5 5 4 4 4 4 3 3 3 3 2 2 1 1 1 0 0 -0 -2 -1 -1 -1 0 1 0 0 -0 1 1 1 0 -1 -1 -1 -1 -1 -1 -1 -2 -2
7 5 3 4 2 3 3 2 3 2 2 1 1 0 -0 -0 -1 -1 -1 -2 -3 -3 -2 -2 -2 -1 -0 -0 -0 0 0 0 1 1 1 0 -1 -2 -2 -1 -1 -1 -1 -1
6 5 3 3 2 3 3 3 2 1 0 -0 -1 -1 -2 -2 -3 -3 -4 -4 -4 -3 -4 -3 -2 -1 -1 -1 -1 -0 0 -0 -0 0 -0 0 -0 -1 -2 -2 -2 -2 -2 -2
3 3 3 2 2 1 1 1 1 -0 -1 -2 -2 -3 -3 -4 -4 -4 -4 -4 -4 -4 -4 -4 -3 -2 -1 -1 -1 -1 -1 -1 -1 -1 -1 -1 -1 -1 -2 -2 -2 -2 -2 -2
2 0 1 1 1 0 0 -1 -1 -1 -2 -3 -4 -4 -4 -4 -5 -5 -5 -5 -4 -4 -4 -4 -4 -3 -2 -2 -3 -2 -2 -2 -2 -1 -1 -1 -2 -2 -2 -2 -2 -3 -3 -3
3 2 1 1 -0 -1 -1 -2 -2 -2 -3 -3 -4 -4 -4 -5 -5 -5 -5 -5 -5 -4 -4 -4 -4 -4 -3 -3 -3 -3 -3 -2 -2 -3 -3 -3 -3 -3 -3 -3 -3 -3 -3 -4
0 -0 -1 -1 -1 -2 -2 -2 -2 -3 -3 -3 -4 -6 -6 -6 -6 -6 -6 -5 -5 -6 -5 -5 -5 -4 -4 -4 -4 -4 -3 -3 -3 -3 -4 -4 -4 -4 -5 -5 -5 -5 -5 -4
-2 -2 -2 -3 -3 -3 -3 -3 -3 -3 -4 -4 -6 -6 -6 -6 -6 -6 -6 -6 -6 -6 -6 -5 -5 -5 -5 -5 -5 -5 -5 -5 -4 -4 -4 -4 -5 -5 -5 -5 -5 -5 -5 -5
-3 -4 -4 -4 -4 -3 -3 -4 -4 -4 -4 -5 -5 -5 -6 -6 -6 -6 -6 -6 -6 -5 -6 -6 -6 -5 -5 -5 -5 -5 -5 -5 -5 -5 -5 -5 -5 -5 -6 -6 -6 -6 -6 -6
-4 -4 -4 -4 -4 -4 -4 -4 -4 -4 -5 -5 -5 -5 -6 -6 -7 -7 -6 -6 -6 -6 -6 -7 -6 -6 -6 -5 -5 -6 -5 -5 -5 -5 -6 -6 -6 -6 -7 -7 -7 -7 -7 -7
-4 -4 -4 -4 -5 -5 -5 -5 -5 -5 -5 -5 -5 -5 -5 -6 -6 -7 -7 -6 -6 -6 -6 -7 -7 -7 -6 -6 -6 -6 -6 -6 -6 -6 -6 -6 -6 -7 -7 -7 -7 -7 -7 -7
-4 -5 -5 -5 -5 -5 -5 -6 -6 -6 -6 -6 -6 -6 -6 -6 -6 -6 -6 -7 -6 -6 -6 -7 -7 -7 -7 -7 -7 -7 -7 -6 -6 -6 -6 -7 -7 -7 -7 -7 -7 -7 -7 -7
-5 -5 -6 -6 -6 -7 -7 -7 -7 -7 -7 -7 -7 -7 -7 -7 -6 -7 -7 -7 -7 -7 -7 -7 -8 -8 -8 -8 -8 -8 -8 -8 -8 -8 -8 -8 -8 -8 -8 -8 -8 -8 -8 -8
-6 -7 -7 -7 -8 -8 -8 -8 -8 -8 -8 -8 -8 -8 -8 -7 -7 -7 -7 -8 -8 -8 -8 -8 -9 -9 -9 -9 -9 -9 -9 -9 -9 -9 -9 -9 -9 -9 -10 -10 -10 -10 -10 -10
-7 -8 -8 -8 -8 -9 -9 -9 -10 -10 -9 -9 -9 -9 -8 -9 -9 -8 -8 -8 -9 -9 -9 -10 -10 -10 -10 -10 -10 -10 -10 -11 -11 -11 -11 -11 -11 -11 -11 -11 -11 -11 -11 -11

GFSNGP_850_temp_219.txt.gz
Temp
13 13 12 12 12 13 13 13 10 12 11 12 11 11 11 15 14 14 14 13 12 12 11 10 10 10 9 9 9 9 8 8 7 7 7 7 7 7 7 7 6 7 6 6
11 11 12 11 12 12 13 13 13 12 12 14 14 14 13 13 13 13 13 12 12 11 10 9 9 9 9 8 8 7 7 7 7 6 6 6 6 7 7 7 7 7 6 5
11 12 11 10 11 12 12 12 13 12 13 14 11 12 12 13 13 13 13 11 10 9 9 8 8 8 8 7 7 7 6 6 6 6 6 6 5 6 6 6 7 7 6 5
10 8 9 12 11 11 11 11 12 12 12 12 11 13 13 13 13 13 11 10 9 8 8 8 8 7 7 7 6 6 6 6 6 5 5 4 4 4 5 5 6 6 5 5
8 8 10 11 10 9 9 11 11 11 12 12 12 9 8 10 11 11 9 8 8 8 8 7 7 7 6 6 6 6 6 5 5 4 3 3 2 3 3 3 3 4 3 3
6 8 9 10 10 12 11 10 11 11 11 11 8 7 6 8 9 8 8 8 7 7 7 7 7 6 6 6 5 5 5 4 3 2 1 1 2 2 2 2 2 2 2 1
8 8 7 9 10 12 9 11 9 10 10 8 7 8 10 8 8 7 7 7 7 7 7 6 6 6 6 5 5 4 4 3 2 0 1 1 1 1 2 2 2 2 2 2
7 8 8 9 10 10 9 8 9 9 8 8 8 8 8 7 7 7 7 7 6 6 6 6 5 5 4 5 4 4 3 2 1 0 0 0 0 1 1 1 1 1 1 1
7 8 8 9 9 10 10 10 8 9 8 8 7 7 7 7 7 6 6 6 6 5 5 5 4 4 4 4 4 4 2 2 1 1 0 1 1 1 1 1 1 1 1 0
6 6 7 9 9 9 10 9 9 9 8 8 7 7 7 6 6 6 6 5 4 4 4 4 4 4 4 4 3 2 2 2 1 2 1 0 0 -0 -0 0 0 0 0 -0
5 6 7 8 8 9 8 8 8 7 7 7 7 6 6 6 5 5 4 4 3 3 3 3 3 3 3 2 1 1 1 1 1 1 1 1 0 -1 -1 -1 -1 -1 -1 -0
5 6 7 8 8 7 8 7 6 6 5 5 6 6 5 5 4 3 2 2 2 2 2 1 1 1 1 0 0 0 1 0 0 0 1 1 -1 -1 -2 -2 -2 -1 -1 -1
8 8 7 7 6 6 6 5 4 5 4 4 4 4 3 3 2 1 1 1 0 0 -0 -1 -2 -2 -2 -1 -0 -0 -0 -0 -0 1 1 0 -2 -2 -1 -2 -2 -1 -1 -2
7 6 4 4 3 4 4 3 3 2 2 3 3 2 1 0 -0 -1 -1 -1 -2 -3 -3 -3 -2 -3 -2 -1 -1 -0 -0 1 0 0 0 0 -1 -2 -2 -2 -1 -1 -1 -2
5 5 4 3 3 2 1 2 1 1 2 1 0 -0 -1 -1 -2 -2 -3 -4 -4 -4 -4 -3 -3 -3 -2 -2 -1 -1 -1 -1 -0 -0 -1 -0 -1 -1 -0 -1 -2 -2 -2 -2
4 3 2 1 0 -0 -0 -0 1 0 -0 -1 -2 -2 -3 -3 -3 -4 -4 -5 -5 -4 -4 -4 -4 -4 -3 -2 -2 -3 -1 -1 -1 -1 -1 -2 -1 -1 -1 -1 -1 -1 -3 -2
1 -0 0 1 1 1 -0 0 0 -0 -2 -2 -3 -3 -3 -4 -4 -5 -5 -5 -5 -5 -4 -4 -4 -4 -5 -3 -3 -3 -2 -2 -2 -2 -2 -2 -2 -2 -2 -2 -2 -2 -2 -3
3 2 3 3 1 0 -0 -1 -1 -2 -2 -3 -3 -3 -4 -5 -5 -5 -5 -6 -5 -5 -5 -5 -5 -5 -5 -3 -3 -4 -3 -2 -3 -3 -3 -3 -3 -3 -3 -3 -3 -3 -3 -4
2 3 2 1 0 -1 -1 -2 -2 -3 -3 -3 -3 -4 -5 -6 -6 -6 -6 -6 -6 -6 -6 -6 -6 -5 -4 -4 -3 -4 -4 -3 -3 -3 -3 -3 -4 -4 -4 -4 -4 -4 -4 -5
1 0 -1 -1 -2 -2 -3 -3 -3 -3 -3 -4 -4 -5 -6 -6 -6 -7 -6 -6 -6 -6 -6 -6 -7 -6 -6 -5 -4 -4 -4 -4 -4 -4 -4 -4 -4 -4 -5 -5 -5 -5 -5 -5
-2 -2 -3 -3 -4 -4 -4 -4 -4 -4 -5 -5 -5 -5 -5 -6 -6 -6 -6 -7 -6 -6 -6 -6 -7 -6 -6 -6 -5 -6 -5 -5 -5 -5 -5 -5 -5 -5 -6 -6 -6 -6 -6 -6
-3 -4 -4 -4 -4 -4 -5 -5 -5 -5 -5 -5 -5 -5 -5 -5 -6 -6 -6 -6 -6 -6 -7 -7 -7 -7 -6 -6 -5 -6 -6 -5 -5 -5 -5 -5 -5 -6 -6 -7 -7 -7 -7 -7
-4 -4 -5 -5 -5 -5 -5 -5 -5 -5 -6 -6 -6 -6 -6 -6 -6 -6 -7 -6 -7 -7 -7 -6 -7 -6 -6 -6 -6 -6 -6 -6 -6 -6 -6 -6 -6 -6 -6 -7 -7 -7 -7 -7
-4 -4 -5 -5 -5 -5 -6 -6 -6 -6 -6 -6 -7 -7 -7 -7 -7 -7 -7 -6 -7 -7 -7 -7 -7 -7 -7 -7 -7 -7 -7 -6 -6 -6 -6 -6 -6 -7 -7 -7 -7 -7 -7 -7
-5 -5 -6 -6 -6 -6 -7 -7 -7 -8 -8 -8 -8 -8 -8 -8 -8 -7 -7 -6 -7 -7 -7 -7 -7 -8 -8 -8 -8 -8 -7 -7 -7 -7 -7 -7 -7 -8 -8 -8 -8 -8 -8 -8
-6 -6 -6 -7 -7 -8 -8 -8 -8 -9 -9 -9 -9 -9 -9 -9 -9 -8 -8 -7 -8 -8 -8 -8 -8 -9 -9 -9 -9 -9 -9 -9 -9 -9 -9 -9 -9 -9 -9 -9 -10 -10 -10 -10
-7 -7 -8 -8 -9 -9 -9 -9 -10 -10 -10 -10 -10 -10 -10 -9 -9 -9 -9 -10 -9 -9 -9 -9 -10 -10 -10 -10 -10 -10 -10 -10 -10 -10 -10 -10 -10 -11 -11 -11 -11 -11 -11 -11

GFSNGP_850_temp_222.txt.gz
Temp
12 12 12 13 13 12 12 13 12 14 13 14 13 11 11 14 14 13 13 13 13 13 13 12 12 11 10 10 9 9 9 8 8 7 7 7 6 6 6 6 6 7 6 6
12 13 11 11 13 13 13 13 13 13 13 15 15 15 14 13 13 14 15 13 13 13 12 12 10 10 9 9 9 8 7 7 7 6 6 6 6 5 5 5 5 5 6 6
11 12 12 10 11 12 13 13 13 12 13 15 14 12 12 13 13 12 13 14 13 13 12 10 9 9 9 8 8 7 7 6 6 5 5 5 5 5 5 4 4 4 5 5
10 10 11 12 11 11 11 12 13 13 14 14 14 14 13 13 13 13 13 13 13 12 10 8 8 8 8 7 7 6 6 6 5 5 5 4 4 3 3 3 3 3 4 3
9 10 11 12 9 9 10 11 12 12 12 13 13 11 9 12 12 13 13 13 12 10 8 8 8 7 7 7 6 6 5 5 4 5 4 4 3 2 2 2 2 2 3 3
6 8 10 10 10 11 11 10 12 11 11 11 9 8 11 11 11 11 11 10 8 8 8 8 7 7 7 6 6 6 5 4 4 4 3 3 1 1 2 2 2 1 2 2
10 8 7 9 10 12 10 12 11 11 11 8 7 9 10 10 9 8 8 8 8 8 8 7 7 6 6 6 5 5 4 4 4 2 2 1 1 1 1 1 1 1 2 2
9 9 9 9 10 10 10 9 10 11 11 10 10 10 9 8 8 8 7 7 7 7 7 6 6 6 5 5 4 4 4 4 3 1 1 1 -0 -0 0 0 1 1 0 1
8 9 9 9 10 11 10 10 9 10 10 10 9 9 8 8 7 7 7 7 7 6 6 6 5 4 4 4 4 4 3 3 2 1 0 0 0 -0 0 0 0 -0 -0 -0
7 7 6 8 10 9 9 9 9 9 10 9 9 8 7 7 7 6 6 6 6 5 5 4 3 3 3 3 3 2 2 1 1 1 1 0 -0 -0 -0 -0 -1 -1 -1 -1
6 6 6 8 8 8 8 8 9 9 8 7 7 7 7 6 6 6 5 5 4 3 3 2 2 2 2 2 2 1 1 0 0 0 0 0 -0 -1 -1 -1 -2 -2 -1 -1
6 6 6 7 8 8 8 7 8 8 7 6 6 6 6 5 5 4 4 3 2 2 1 1 1 1 0 -0 -1 -1 -1 -0 -1 -0 -0 0 -0 -1 -1 -2 -2 -2 -2 -2
6 7 8 7 7 8 7 7 6 6 6 5 5 5 4 4 3 4 3 1 1 1 1 0 -1 -1 -2 -2 -2 -1 -0 -0 -1 -1 -1 -0 -0 -1 -2 -2 -2 -2 -1 -2
7 7 5 6 5 5 6 4 4 3 3 2 2 2 2 2 1 1 -0 -0 -0 -1 -1 -2 -3 -3 -3 -3 -2 -2 -1 -0 -1 -1 -0 -0 -0 -0 -0 -2 -2 -2 -2 -2
6 6 6 5 4 3 3 2 2 1 0 0 0 1 1 0 -0 -1 -1 -2 -3 -3 -4 -4 -4 -4 -4 -4 -2 -2 -1 -1 -1 -1 -1 -1 -1 -1 -2 -1 -1 -2 -3 -2
5 4 4 4 2 1 1 -0 -0 -0 0 0 -0 -1 -1 -2 -3 -3 -3 -4 -5 -5 -5 -5 -4 -4 -5 -5 -4 -4 -3 -2 -2 -1 -2 -2 -2 -2 -2 -2 -2 -2 -2 -2
1 0 0 -1 0 -0 -0 -0 0 1 -0 -1 -1 -2 -3 -3 -3 -4 -4 -5 -5 -6 -6 -5 -5 -5 -5 -5 -5 -5 -3 -3 -2 -2 -2 -2 -2 -3 -3 -3 -2 -2 -3 -2
3 2 0 0 -0 -0 -0 0 -0 -1 -1 -2 -2 -3 -4 -4 -4 -5 -5 -6 -6 -6 -6 -6 -6 -6 -6 -6 -5 -5 -4 -3 -3 -3 -3 -3 -3 -3 -3 -3 -3 -3 -3 -3
2 1 0 0 0 0 -1 -1 -1 -1 -2 -3 -3 -4 -5 -5 -6 -7 -7 -6 -7 -6 -6 -6 -6 -6 -6 -6 -6 -6 -5 -4 -4 -4 -4 -4 -4 -4 -4 -4 -4 -4 -4 -4
0 -0 -0 -0 -0 -0 -1 -2 -2 -3 -3 -4 -4 -5 -5 -5 -6 -6 -6 -5 -6 -6 -6 -6 -6 -7 -7 -6 -6 -6 -6 -5 -4 -4 -4 -4 -4 -4 -4 -5 -5 -5 -5 -5
-1 -2 -2 -2 -2 -2 -3 -3 -4 -4 -4 -5 -5 -5 -5 -6 -6 -6 -5 -5 -5 -5 -6 -6 -7 -7 -7 -6 -7 -7 -6 -6 -6 -6 -5 -5 -5 -5 -5 -5 -6 -6 -6 -6
-2 -3 -3 -4 -4 -4 -4 -5 -5 -5 -5 -5 -5 -5 -5 -5 -5 -6 -6 -6 -5 -6 -6 -7 -7 -7 -7 -7 -7 -7 -7 -6 -6 -6 -6 -6 -5 -6 -6 -6 -7 -7 -7 -7
-3 -4 -5 -5 -5 -5 -5 -5 -5 -5 -5 -6 -6 -6 -6 -6 -6 -6 -6 -6 -7 -6 -7 -7 -7 -7 -7 -7 -7 -6 -7 -7 -6 -6 -6 -6 -6 -6 -6 -7 -7 -7 -8 -7
-4 -4 -5 -5 -5 -5 -6 -6 -6 -7 -7 -7 -7 -7 -8 -8 -7 -7 -8 -8 -7 -7 -7 -7 -7 -7 -7 -7 -7 -7 -7 -7 -6 -6 -6 -6 -7 -7 -7 -7 -7 -7 -7 -7
-5 -5 -5 -6 -6 -6 -7 -7 -8 -8 -8 -8 -8 -9 -9 -9 -9 -9 -9 -8 -8 -7 -7 -7 -7 -8 -8 -8 -8 -8 -8 -7 -7 -7 -7 -7 -7 -7 -7 -8 -8 -8 -8 -8
-6 -6 -6 -7 -7 -8 -8 -9 -9 -9 -9 -9 -9 -9 -10 -10 -10 -10 -9 -9 -9 -8 -9 -8 -8 -8 -9 -9 -9 -9 -9 -9 -9 -9 -9 -9 -9 -9 -9 -9 -9 -9 -9 -9
-7 -7 -7 -8 -9 -9 -9 -10 -10 -10 -10 -10 -10 -10 -10 -10 -9 -9 -9 -11 -11 -10 -10 -10 -9 -10 -10 -10 -10 -10 -10 -10 -10 -10 -10 -10 -10 -10 -10 -10 -10 -11 -11 -11

GFSNGP_850_temp_228.txt.gz
Temp
20 20 20 19 19 20 19 19 18 19 20 21 22 22 22 21 19 18 17 17 17 16 15 15 13 12 11 10 13 13 12 11 10 9 9 9 9 10 8 7 6 6 4 4
15 17 17 17 18 18 19 19 20 20 20 21 21 21 21 20 20 19 18 17 16 15 14 14 13 11 10 10 12 11 10 9 9 9 9 9 9 7 6 6 4 3 3 2
12 16 16 14 16 17 18 19 19 19 20 21 21 21 21 20 19 18 17 16 15 15 14 14 12 10 9 8 11 10 9 9 9 9 8 9 7 6 5 4 3 2 2 2
10 11 11 15 19 18 17 18 19 19 20 20 20 20 19 19 18 18 17 15 14 14 13 13 11 9 8 8 9 9 9 8 8 8 8 6 6 5 4 2 2 3 1 1
10 10 13 15 17 16 16 17 19 18 19 19 19 19 19 17 17 15 14 14 12 11 12 12 11 8 8 9 8 8 8 7 7 7 6 5 5 4 3 3 2 1 1 1
8 10 11 17 18 19 18 16 18 19 19 19 18 17 18 18 15 14 14 13 13 12 11 10 8 8 8 7 7 7 7 6 6 6 5 5 4 2 1 1 1 1 1 1
9 9 12 17 18 16 14 17 19 18 18 18 18 18 17 15 13 13 13 12 12 11 9 7 7 8 8 8 7 6 7 6 5 5 5 4 3 1 1 1 1 1 1 1
10 10 11 16 17 14 17 17 16 16 17 17 16 16 12 11 11 12 12 11 9 7 7 7 7 8 7 7 6 6 6 5 5 4 4 4 2 1 0 0 -0 -0 -1 0
11 12 15 16 16 16 15 16 15 14 13 12 12 12 12 10 9 9 8 7 7 6 7 7 7 7 7 6 6 5 5 5 4 4 3 3 2 1 1 0 -1 -0 -1 -1
12 14 16 14 14 12 12 12 12 11 11 10 11 11 11 9 8 7 7 6 6 6 6 7 6 6 6 5 5 4 4 3 3 3 2 2 1 0 0 0 -0 -1 -1 -2
10 11 11 10 11 10 10 9 9 9 9 9 9 9 9 8 7 7 6 5 5 5 5 5 5 5 4 3 3 3 2 2 1 0 0 -0 0 0 0 -0 -1 -2 -1 -1
8 8 9 10 9 8 7 8 8 8 8 9 8 8 8 7 6 5 4 5 5 5 4 4 3 3 2 2 2 2 1 -0 -1 -1 -0 -0 -0 -0 -1 -1 -2 -2 -2 -1
7 5 5 5 6 6 6 8 8 8 8 8 7 6 7 5 4 3 4 4 4 3 3 2 1 1 1 1 1 0 -1 -1 -2 -1 -1 -1 -1 -1 -1 -1 -2 -2 -2 -1
7 6 6 6 7 8 7 8 7 7 7 6 5 5 4 2 3 2 1 1 2 1 1 1 0 -0 -0 -0 -1 -2 -2 -2 -2 -2 -2 -2 -1 -1 -1 -1 -1 -1 -2 -1
6 6 7 7 7 7 5 5 4 4 3 2 2 2 1 1 -0 0 0 -0 -0 -1 -1 -0 -0 -1 -1 -2 -3 -3 -4 -4 -3 -3 -3 -2 -1 -1 -1 -1 -2 -2 -2 -2
6 6 6 6 6 6 4 3 3 2 0 -1 -0 0 -0 -0 -0 -1 -1 -1 -1 -1 -2 -3 -3 -4 -4 -4 -4 -4 -4 -4 -4 -3 -2 -2 -2 -2 -2 -2 -2 -2 -2 -2
5 5 4 4 5 4 3 2 2 -1 -1 -0 -0 -1 -1 -2 -2 -3 -3 -2 -2 -3 -4 -4 -5 -5 -5 -5 -5 -5 -5 -5 -4 -3 -3 -3 -2 -2 -2 -2 -2 -2 -3 -2
4 4 5 4 4 2 0 -0 -1 -0 -1 -1 -1 -2 -2 -2 -2 -3 -3 -3 -4 -4 -5 -5 -5 -5 -5 -5 -5 -5 -5 -5 -4 -4 -3 -3 -3 -3 -3 -3 -3 -3 -3 -3
2 3 2 0 0 -0 -0 -1 -1 -1 -2 -1 -1 -2 -3 -3 -3 -4 -4 -5 -5 -5 -5 -5 -5 -6 -6 -7 -6 -6 -6 -6 -5 -5 -4 -4 -3 -3 -3 -3 -3 -4 -4 -4
-0 -1 -1 -1 -1 -1 -1 -1 -1 -2 -2 -2 -3 -3 -3 -4 -4 -4 -4 -4 -5 -5 -5 -5 -5 -6 -6 -6 -7 -7 -6 -6 -6 -5 -5 -4 -4 -4 -4 -4 -4 -4 -5 -4
-1 -1 -1 -1 -2 -2 -2 -3 -3 -3 -3 -3 -4 -4 -4 -4 -4 -5 -5 -6 -5 -5 -5 -5 -5 -6 -6 -6 -7 -7 -7 -7 -6 -6 -5 -5 -5 -5 -5 -5 -5 -5 -5 -5
-2 -2 -2 -2 -2 -3 -3 -4 -4 -4 -4 -4 -5 -5 -5 -5 -5 -5 -5 -6 -6 -6 -6 -6 -7 -7 -7 -7 -7 -7 -7 -7 -7 -6 -6 -6 -6 -6 -5 -5 -6 -6 -6 -6
-3 -3 -3 -3 -4 -4 -4 -5 -5 -5 -5 -5 -6 -6 -6 -7 -7 -7 -7 -7 -8 -8 -7 -7 -7 -7 -7 -7 -7 -8 -7 -7 -7 -7 -7 -6 -6 -6 -6 -6 -6 -6 -7 -7
-5 -5 -4 -5 -5 -5 -5 -6 -6 -6 -6 -7 -7 -7 -8 -8 -9 -9 -9 -9 -9 -8 -8 -8 -8 -8 -8 -8 -8 -8 -8 -8 -7 -7 -7 -7 -7 -7 -7 -7 -7 -7 -7 -8
-4 -5 -5 -6 -6 -7 -7 -7 -7 -8 -8 -9 -9 -10 -10 -11 -10 -10 -10 -10 -10 -9 -10 -11 -9 -9 -8 -9 -8 -8 -8 -8 -8 -8 -8 -8 -8 -8 -8 -8 -8 -8 -8 -8
-6 -6 -7 -7 -8 -8 -8 -9 -9 -10 -10 -10 -10 -11 -11 -10 -11 -11 -12 -12 -12 -11 -11 -10 -10 -10 -10 -9 -9 -9 -9 -9 -9 -9 -9 -9 -9 -9 -9 -9 -9 -9 -9 -9
-6 -7 -8 -8 -9 -9 -9 -9 -10 -11 -11 -12 -12 -12 -12 -12 -12 -11 -12 -12 -12 -12 -12 -11 -11 -11 -11 -10 -10 -10 -10 -10 -10 -10 -10 -10 -10 -10 -10 -10 -10 -10 -10 -10